This demonstration page uses our WeatherBlox Daily Observations layout. Learn more.

Left ArrowRight Arrow

44.8408, -93.29828

Hourly Observations for July 23, 2022

Temp ( °F °C ) Dew Point ( °F °C ) Humidity (%) Winds ( mph kmh ) Pressure ( in mb ) Visibility ( mi km ) Precip ( " mm )
12:53 am 00:53 Clear 77 25 67 19.4 71 71 Calm 29.84 1011 10 16 0.00 0.00
1:53 am 01:53 Clear 77 25 65 18.3 66 66 Calm 29.82 1010 10 16 0.00 0.00
2:53 am 02:53 Clear 74 23.3 66 18.9 76 76 Calm 29.82 1010 10 16 0.00 0.00
3:53 am 03:53 Clear 74 23.3 65 18.3 74 74 Calm 29.82 1010 10 16 0.00 0.00
4:53 am 04:53 Mostly Clear 72 22.2 66 18.9 82 82 Calm 29.81 1010 10 16 0.00 0.00
5:53 am 05:53 Mostly Sunny 71 21.7 65 18.3 81 81 N 6 9 29.84 1011 10 16 0.00 0.00
6:53 am 06:53 Mostly Cloudy 72 22.2 65 18.3 79 79 Calm 29.83 1010 10 16 0.00 0.00
7:53 am 07:53 Mostly Cloudy 75 23.9 65 18.3 71 71 SE 6 9 29.83 1010 10 16 0.00 0.00
8:53 am 08:53 Cloudy 79 26.1 67 19.4 67 67 ESE 9 15 29.80 1009 10 16 0.00 0.00
9:53 am 09:53 Cloudy 80 26.7 66 18.9 62 62 Calm 29.83 1010 10 16 0.00 0.00
10:53 am 10:53 Cloudy 79 26.1 66 18.9 65 65 ENE 9 15 29.81 1010 10 16 0.00 0.00
11:37 am 11:37 Cloudy 78 25.6 66 18.9 67 67 NE 15 24 29.79 1009 10 16 0.00 0.00
11:53 am 11:53 Cloudy 78 25.6 65 18.3 64 64 NNE 8 13 29.84 1011 10 16 0.00 0.00
12:14 pm 12:14 Cloudy with Nearby Thunderstorms 78 25.6 65 18.3 64 64 NW 12 19 29.88 1012 10 16 0.00 0.00
12:29 pm 12:29 Cloudy 76 24.4 65 18.3 69 69 NNW 8 13 29.86 1011 10 16 0.00 0.00
12:44 pm 12:44 Cloudy with Light Rain 75 23.9 66 18.9 74 74 E 18 30 29.78 1008 9 14 0.00 0.00
12:53 pm 12:53 Cloudy with Light Rain 74 23.3 66 18.9 76 76 ESE 13 20 29.82 1010 9 14 0.01 0.25
1:06 pm 13:06 Cloudy with Nearby Thunderstorms 74 23.3 67 19.4 79 79 E 13 20 29.78 1008 10 16 0.00 0.00
1:21 pm 13:21 Mostly Cloudy 75 23.9 68 20 79 79 ESE 16 26 29.76 1008 10 16 0.01 0.25
1:53 pm 13:53 Cloudy 76 24.4 68 20 77 77 ENE 15 24 29.76 1008 10 16 0.01 0.25
2:02 pm 14:02 Cloudy with Nearby Thunderstorms 76 24.4 68 20 77 77 NE 10 17 29.77 1008 10 16 0.00 0.00
2:15 pm 14:15 Cloudy with Nearby Thunderstorms 76 24.4 68 20 77 77 NNE 13 20 29.80 1009 10 16 0.00 0.00
2:29 pm 14:29 Cloudy with Nearby Thunderstorms 74 23.3 68 20 82 82 S 14 22 29.84 1010 9 14 0.00 0.00
2:32 pm 14:32 Cloudy with Nearby Thunderstorms 74 23.3 68 20 82 82 S 7 11 29.85 1011 5 8 0.01 0.25
2:43 pm 14:43 Cloudy with Nearby Thunderstorms 72 22.2 68 20 87 87 SE 16 26 29.80 1009 8 13 0.15 3.81
2:53 pm 14:53 Cloudy with Nearby Thunderstorms 71 21.7 68 20 90 90 E 10 17 29.82 1010 10 16 0.17 4.32
3:11 pm 15:11 Mostly Cloudy 73 22.8 67 19.4 81 81 E 15 24 29.77 1008 10 16 0.00 0.00
3:53 pm 15:53 Mostly Cloudy 76 24.4 66 18.9 72 72 ENE 14 22 29.79 1009 10 16 0.00 0.00
4:09 pm 16:09 Mostly Cloudy 76 24.4 65 18.3 69 69 N 15 24 29.80 1009 10 16 0.00 0.00
4:53 pm 16:53 Mostly Cloudy 77 25 65 18.3 66 66 E 21 33 29.76 1008 10 16 0.00 0.00
5:53 pm 17:53 Mostly Cloudy 76 24.4 63 17.2 64 64 SE 15 24 29.76 1008 10 16 0.00 0.00
6:53 pm 18:53 Mostly Cloudy 75 23.9 66 18.9 74 74 SE 6 9 29.77 1008 10 16 0.00 0.00
7:53 pm 19:53 Mostly Cloudy 75 23.9 67 19.4 76 76 ESE 3 6 29.76 1008 10 16 0.00 0.00
8:53 pm 20:53 Mostly Cloudy 74 23.3 67 19.4 79 79 N 8 13 29.77 1008 10 16 0.00 0.00
9:53 pm 21:53 Mostly Cloudy 73 22.8 66 18.9 79 79 N 6 9 29.78 1008 10 16 0.00 0.00
10:53 pm 22:53 Mostly Clear 72 22.2 66 18.9 82 82 N 5 7 29.78 1009 10 16 0.00 0.00
11:53 pm 23:53 Mostly Clear 72 22.2 66 18.9 82 82 N 6 9 29.78 1008 10 16 0.00 0.00

Powered by AerisWeather